FW4179 Weather Reports


time (UTC)temp
C
wind
direction
speed
KPH
gust
KPH
rain 1hr
cm
rain 24hr
cm
rain mn
cm
humidity
%
barometer
mb
20260904160101 32 26 0.0 6.4 0.00 0.00 0.00 66 1018.9
20260904154557 32 0 1.6 8.0 0.00 0.00 0.00 66 1018.9
20260904153055 32 0 0.0 4.8 0.00 0.00 0.00 70 1018.9
20260904151614 31 167 0.0 6.4 0.00 0.00 0.00 71 1019.0
20260904150124 30 0 0.0 9.7 0.00 0.00 0.00 71 1019.0
20260904144556 30 191 0.0 6.4 0.00 0.00 0.00 74 1018.9
20260904143104 29 146 3.2 8.0 0.00 0.00 0.00 75 1018.8
20260904141612 28 154 3.2 4.8 0.00 0.00 0.00 78 1018.7
20260904134603 27 140 0.0 0.0 0.00 0.00 0.00 82 1018.6
20260904133100 26 0 0.0 0.0 0.00 0.00 0.00 84 1018.6
20260904131558 26 0 0.0 0.0 0.00 0.00 0.00 86 1018.5
20260904130058 25 0 0.0 0.0 0.00 0.00 0.00 88 1018.6
20260904124558 24 0 0.0 0.0 0.00 0.00 0.00 90 1018.5
20260904123058 24 0 0.0 0.0 0.00 0.00 0.00 90 1018.4
20260904121556 23 0 0.0 0.0 0.00 0.00 0.00 91 1018.2
20260904120106 23 0 0.0 0.0 0.00 0.00 0.00 92 1018.3
20260904114558 23 0 0.0 0.0 0.00 0.00 0.00 92 1018.1
20260904113102 23 0 0.0 0.0 0.00 0.00 0.00 93 1018.1
20260904111602 23 0 0.0 0.0 0.00 0.00 0.00 92 1017.9
20260904110059 23 0 0.0 0.0 0.00 0.00 0.00 91 1017.5
20260904104600 23 140 1.6 4.8 0.00 0.00 0.00 92 1017.3
20260904103056 23 139 1.6 4.8 0.00 0.00 0.00 92 1017.3
20260904101555 23 0 0.0 3.2 0.00 0.00 0.00 92 1017.3
20260904100058 23 134 1.6 6.4 0.00 0.00 0.00 94 1017.2
20260904094603 22 0 0.0 0.0 0.00 0.00 0.00 94 1017.4
20260904093107 22 0 0.0 0.0 0.00 0.00 0.00 94 1017.3
20260904091555 22 0 0.0 0.0 0.00 0.00 0.00 94 1017.1
20260904090100 23 0 0.0 0.0 0.00 0.00 0.00 94 1017.0
20260904084600 23 0 0.0 0.0 0.00 0.00 0.00 93 1017.1
20260904083056 23 0 0.0 0.0 0.00 0.00 0.00 94 1017.0
20260904081601 23 0 0.0 0.0 0.00 0.00 0.00 93 1017.0
20260904080057 23 0 0.0 0.0 0.00 0.00 0.00 93 1017.0
20260904074557 23 0 0.0 0.0 0.00 0.00 0.00 92 1016.8
20260904073054 23 0 0.0 0.0 0.00 0.00 0.00 91 1016.8
20260904071553 23 0 0.0 0.0 0.00 0.00 0.00 90 1017.0
20260904070055 24 0 0.0 0.0 0.00 0.00 0.00 89 1017.0
20260904064557 24 0 0.0 0.0 0.00 0.00 0.00 89 1017.1
20260904063059 24 0 0.0 0.0 0.00 0.00 0.00 89 1017.1
20260904061559 24 0 0.0 0.0 0.00 0.00 0.00 88 1017.2
20260904060059 25 0 0.0 0.0 0.00 0.00 0.00 87 1017.2
20260904054557 25 0 0.0 0.0 0.00 0.00 0.00 87 1017.3
20260904053058 25 0 0.0 0.0 0.00 0.00 0.00 84 1017.4
20260904051558 26 0 0.0 0.0 0.00 0.00 0.00 83 1017.4
20260904044557 26 130 1.6 4.8 0.00 0.00 0.00 82 1017.5
20260904043058 26 130 1.6 4.8 0.00 0.00 0.00 81 1017.4
20260904041556 26 130 1.6 6.4 0.00 0.00 0.00 80 1017.5
20260904040107 27 0 0.0 0.0 0.00 0.00 0.00 79 1017.7
20260904034558 27 0 0.0 0.0 0.00 0.00 0.00 79 1017.8
20260904033053 27 0 1.6 6.4 0.00 0.00 0.00 78 1017.8
20260904031555 27 150 3.2 4.8 0.00 0.00 0.00 77 1017.9
20260904030100 28 150 1.6 4.8 0.00 0.00 0.00 76 1018.0
20260904024604 28 150 1.6 6.4 0.00 0.00 0.00 76 1018.1
20260904023101 27 0 0.0 0.0 0.00 0.00 0.00 79 1018.1
20260904021604 27 0 0.0 0.0 0.00 0.00 0.00 80 1018.0
20260904020054 28 0 0.0 0.0 0.00 0.00 0.00 82 1017.7
20260904014605 28 0 0.0 0.0 0.00 0.00 0.00 80 1017.5
20260904013055 28 0 0.0 0.0 0.00 0.00 0.00 78 1017.4
20260904011558 29 0 0.0 0.0 0.00 0.00 0.00 76 1017.3
20260904010055 30 0 0.0 0.0 0.00 0.00 0.00 73 1017.0
20260904004606 30 0 0.0 0.0 0.00 0.00 0.00 71 1016.8
20260904003057 30 0 0.0 1.6 0.00 0.00 0.00 69 1016.8
20260904001558 31 0 0.0 0.0 0.00 0.00 0.00 67 1016.6
20260904000109 32 0 0.0 3.2 0.00 0.00 0.00 67 1016.5
20260903234551 32 0 0.0 0.0 0.00 0.00 0.00 60 1016.5
20260903233103 33 0 0.0 0.0 0.00 0.00 0.00 58 1016.3
20260903231558 33 0 0.0 3.2 0.00 0.00 0.00 58 1016.2
20260903230100 33 0 0.0 1.6 0.00 0.00 0.00 58 1016.2
20260903224613 32 109 3.2 11.3 0.00 0.00 0.00 61 1016.4
20260903223108 32 0 0.0 0.0 0.00 0.00 0.00 63 1016.2
20260903221603 31 0 1.6 8.0 0.00 0.00 0.00 64 1016.2
20260903220101 31 0 6.4 14.5 0.00 0.00 0.00 61 1016.3
20260903214609 33 350 8.0 22.5 0.00 0.00 0.00 53 1016.4
20260903213100 36 117 3.2 9.7 0.00 0.00 0.00 48 1016.2
20260903211605 37 235 1.6 8.0 0.00 0.00 0.00 47 1016.3
20260903210127 37 277 0.0 6.4 0.00 0.00 0.00 47 1016.5
20260903204552 36 186 1.6 14.5 0.00 0.00 0.00 49 1016.5
20260903203107 36 148 4.8 11.3 0.00 0.00 0.00 47 1016.7
20260903201601 36 131 1.6 9.7 0.00 0.00 0.00 49 1016.7
20260903200058 36 106 1.6 6.4 0.00 0.00 0.00 50 1016.9
20260903194556 36 285 3.2 9.7 0.00 0.00 0.00 51 1017.1
20260903193103 35 104 3.2 12.9 0.00 0.00 0.00 51 1017.2
20260903191556 35 131 3.2 11.3 0.00 0.00 0.00 49 1017.4
20260903190100 36 0 1.6 9.7 0.00 0.00 0.00 50 1017.6
20260903184555 36 0 0.0 6.4 0.00 0.00 0.00 49 1017.7
20260903183053 35 0 0.0 3.2 0.00 0.00 0.00 53 1017.9
20260903181558 35 0 0.0 9.7 0.00 0.00 0.00 52 1018.2
20260903180059 35 192 1.6 6.4 0.00 0.00 0.00 53 1018.2
20260903174555 35 279 1.6 6.4 0.00 0.00 0.00 54 1018.5
20260903173059 34 0 1.6 9.7 0.00 0.00 0.00 54 1018.7
20260903171607 34 0 0.0 3.2 0.00 0.00 0.00 55 1019.1
20260903170058 35 0 0.0 6.4 0.00 0.00 0.00 54 1019.3
20260903164620 35 57 0.0 6.4 0.00 0.00 0.00 56 1019.3
20260903163101 33 0 0.0 6.4 0.00 0.00 0.00 62 1019.5
20260903161557 33 0 3.2 9.7 0.00 0.00 0.00 62 1019.5